Hoquiam, WA

5:16 PM PST on February 05, 2016 (GMT -0800)
Bowerman

Weather History for KHQM - January, 2013

Change the Weather History Date:

Thursday, January 31, 2013

  Actual Average Record
Temperature  
Mean Temperature 46 °F 43 °F  
Max Temperature 48 °F 49 °F 59 °F (1993)
Min Temperature 44 °F 38 °F 23 °F (1956)
Degree Days  
Heating Degree Days 19 22  
Month to date heating degree days 693  
Cooling Degree Days 0 0  
Month to date cooling degree days 0  
Year to date cooling degree days 0  
Moisture  
Dew Point 46 °F    
Average Humidity 97    
Maximum Humidity 100    
Minimum Humidity 93    
Precipitation  
Precipitation 0.11 in 0.30 in 1.64 in (1995)
Month to date precipitation 10.33  
Year to date precipitation 10.33  
Sea Level Pressure  
Sea Level Pressure 30.36 in    
Wind  
Wind Speed 6 mph (SSW)    
Max Wind Speed 15 mph    
Max Gust Speed -    
Visibility 5 miles    
Events Fog , Rain    
T = Trace of Precipitation, MM = Missing Value Source: NWS Daily Summary

Daily Weather History Graph

Daily Weather History Graph

Search for Another Location

Airport or City:

Trip Planner

Search our weather history database for the weather conditions in past years. The results will help you decide how hot, cold, wet, or windy it might be!

Date:

Astronomy

Jan. 31, 2013 Rise Set
Actual Time 7:41 AM PST 5:17 PM PST
Civil Twilight 7:08 AM PST 5:50 PM PST
Nautical Twilight 6:32 AM PST 6:26 PM PST
Astronomical Twilight 5:56 AM PST 7:02 PM PST
Moon 10:50 PM PST (1/31) 9:22 AM PST (1/31)
Length of Visible Light 10h 41m
Length of Day
9h 36m
Waning Gibbous, 79% of the Moon is Illuminated
Jan 31
Waning Gibbous
Feb 3
Last Quarter
Feb 9
New
Feb 17
First Quarter
Feb 25
Full

Hourly Weather History & Observations

Time (PST) Temp. Windchill Dew Point Humidity Pressure Visibility Wind Dir Wind Speed Gust Speed Precip Events Conditions
12:53 AM 46.0 °F 42.5 °F 46.0 °F 100% 30.44 in 5.0 mi SSW 6.9 mph - 0.00 in Rain Light Rain
1:08 AM 46.4 °F 42.9 °F 46.4 °F 100% 30.42 in 6.0 mi SSW 6.9 mph - 0.00 in   Overcast
1:23 AM 46.4 °F 43.5 °F 46.4 °F 100% 30.42 in 8.0 mi SW 5.8 mph - 0.00 in   Overcast
1:53 AM 46.9 °F - 46.0 °F 97% 30.43 in 7.0 mi South 6.9 mph - 0.01 in Rain Light Rain
2:02 AM 46.4 °F 42.9 °F 46.4 °F 100% 30.42 in 9.0 mi SSE 6.9 mph - 0.00 in   Overcast
2:26 AM 46.4 °F 44.3 °F 46.4 °F 100% 30.42 in 10.0 mi SSE 4.6 mph - 0.00 in   Overcast
2:36 AM 46.4 °F 45.2 °F 46.4 °F 100% 30.42 in 10.0 mi South 3.5 mph - 0.00 in   Overcast
2:53 AM 46.0 °F - 45.0 °F 96% 30.43 in 8.0 mi Calm Calm - 0.00 in   Overcast
3:20 AM 44.6 °F - 44.6 °F 100% 30.41 in 9.0 mi Calm Calm - N/A   Mostly Cloudy
3:31 AM 46.4 °F - 44.6 °F 93% 30.41 in 10.0 mi Calm Calm - N/A   Mostly Cloudy
3:46 AM 46.4 °F 42.4 °F 44.6 °F 93% 30.41 in 10.0 mi South 8.1 mph - N/A   Overcast
3:53 AM 46.0 °F 42.5 °F 45.0 °F 96% 30.42 in 10.0 mi South 6.9 mph - N/A   Overcast
4:53 AM 46.9 °F - 45.0 °F 93% 30.42 in 10.0 mi Calm Calm - N/A   Overcast
5:09 AM 46.4 °F - 44.6 °F 93% 30.40 in 10.0 mi Calm Calm - N/A   Overcast
5:53 AM 46.9 °F - 46.0 °F 97% 30.41 in 10.0 mi Calm Calm - N/A   Overcast
6:53 AM 46.9 °F - 46.0 °F 97% 30.39 in 10.0 mi Calm Calm - N/A   Overcast
7:53 AM 46.9 °F - 45.0 °F 93% 30.39 in 10.0 mi South 3.5 mph - N/A   Overcast
8:43 AM 46.4 °F 42.9 °F 44.6 °F 93% 30.38 in 8.0 mi South 6.9 mph - 0.01 in Rain Light Rain
8:51 AM 46.4 °F 42.9 °F 44.6 °F 93% 30.38 in 7.0 mi SSE 6.9 mph - 0.02 in Rain Light Rain
8:53 AM 46.9 °F - 45.0 °F 93% 30.39 in 7.0 mi South 5.8 mph - 0.02 in Rain Light Rain
9:03 AM 46.4 °F 43.5 °F 44.6 °F 93% 30.38 in 7.0 mi SSE 5.8 mph - 0.00 in Rain Light Rain
9:28 AM 46.4 °F 43.5 °F 46.4 °F 100% 30.38 in 10.0 mi South 5.8 mph - 0.02 in Rain Light Rain
9:53 AM 46.9 °F - 46.0 °F 97% 30.39 in 9.0 mi South 6.9 mph - 0.02 in Rain Light Rain
10:53 AM 46.9 °F - 46.0 °F 97% 30.39 in 3.0 mi South 12.7 mph - 0.00 in   Overcast
11:53 AM 46.9 °F - 46.0 °F 97% 30.36 in 3.0 mi South 11.5 mph - N/A   Overcast
12:20 PM 48.2 °F - 46.4 °F 93% 30.35 in 8.0 mi South 10.4 mph - N/A   Overcast
12:31 PM 48.2 °F - 46.4 °F 93% 30.35 in 2.5 mi South 11.5 mph - 0.01 in   Overcast
12:46 PM 46.4 °F 42.9 °F 46.4 °F 100% 30.35 in 3.0 mi South 6.9 mph - 0.01 in Rain Light Rain
12:53 PM 46.9 °F - 46.9 °F 100% 30.36 in 2.0 mi South 8.1 mph - 0.01 in Rain Light Rain
1:02 PM 48.2 °F - 46.4 °F 93% 30.35 in 1.5 mi South 8.1 mph - 0.01 in Rain Light Rain
1:14 PM 48.2 °F - 46.4 °F 93% 30.34 in 2.5 mi South 10.4 mph - 0.01 in Rain Light Rain
1:42 PM 48.2 °F - 46.4 °F 93% 30.33 in 3.0 mi South 15.0 mph - 0.02 in   Overcast
1:53 PM 48.0 °F - 46.9 °F 96% 30.33 in 4.0 mi South 13.8 mph - 0.02 in   Overcast
2:09 PM 48.2 °F - 46.4 °F 93% 30.32 in 6.0 mi South 12.7 mph - N/A   Overcast
2:34 PM 48.2 °F - 46.4 °F 93% 30.32 in 3.0 mi South 12.7 mph - N/A   Overcast
2:44 PM 48.2 °F - 46.4 °F 93% 30.33 in 2.5 mi South 11.5 mph - N/A   Overcast
2:53 PM 48.0 °F - 46.9 °F 96% 30.34 in 1.8 mi South 11.5 mph - N/A   Overcast
3:53 PM 48.0 °F - 46.9 °F 96% 30.34 in 1.8 mi South 10.4 mph - 0.01 in Rain Light Rain
4:05 PM 48.2 °F - 46.4 °F 93% 30.32 in 2.0 mi South 11.5 mph - 0.00 in   Overcast
4:19 PM 48.2 °F - 46.4 °F 93% 30.33 in 1.5 mi South 11.5 mph - 0.00 in   Overcast
4:53 PM 46.9 °F - 46.9 °F 100% 30.33 in 1.2 mi South 9.2 mph - 0.00 in   Overcast
5:30 PM 46.4 °F 42.9 °F 46.4 °F 100% 30.32 in 1.5 mi SSW 6.9 mph - 0.01 in   Overcast
5:53 PM 46.9 °F - 46.9 °F 100% 30.33 in 1.5 mi SSW 5.8 mph - 0.01 in   Overcast
6:13 PM 46.4 °F 42.9 °F 46.4 °F 100% 30.32 in 1.2 mi SSW 6.9 mph - 0.01 in   Overcast
6:53 PM 46.9 °F - 46.9 °F 100% 30.33 in 2.5 mi WSW 4.6 mph - 0.01 in   Overcast
7:02 PM 46.4 °F 45.2 °F 46.4 °F 100% 30.32 in 3.0 mi WSW 3.5 mph - N/A   Overcast
7:11 PM 46.4 °F 45.2 °F 46.4 °F 100% 30.33 in 3.0 mi WSW 3.5 mph - N/A   Overcast
7:42 PM 46.4 °F 45.2 °F 46.4 °F 100% 30.32 in 3.0 mi WSW 3.5 mph - N/A   Overcast
7:53 PM 46.9 °F - 46.0 °F 97% 30.34 in 2.0 mi SW 5.8 mph - N/A   Overcast
7:59 PM 46.4 °F 45.2 °F 46.4 °F 100% 30.33 in 1.2 mi WSW 3.5 mph - N/A   Overcast
8:10 PM 46.4 °F 44.3 °F 46.4 °F 100% 30.32 in 0.5 mi WSW 4.6 mph - N/A Fog Fog
8:35 PM 46.4 °F 43.5 °F 46.4 °F 100% 30.33 in 0.5 mi WSW 5.8 mph - N/A Fog Fog
8:53 PM 46.0 °F 43.1 °F 46.0 °F 100% 30.34 in 1.2 mi WSW 5.8 mph - N/A   Overcast
9:04 PM 46.4 °F 44.3 °F 46.4 °F 100% 30.33 in 3.0 mi WSW 4.6 mph - N/A   Overcast
9:23 PM 46.4 °F 44.3 °F 46.4 °F 100% 30.33 in 3.0 mi WSW 4.6 mph - N/A   Overcast
9:28 PM 46.4 °F 45.2 °F 46.4 °F 100% 30.33 in 2.0 mi WSW 3.5 mph - 0.01 in   Overcast
9:36 PM 46.4 °F 44.3 °F 46.4 °F 100% 30.33 in 1.8 mi SW 4.6 mph - 0.01 in   Overcast
9:43 PM 46.4 °F 43.5 °F 46.4 °F 100% 30.33 in 2.5 mi SW 5.8 mph - 0.01 in   Overcast
10:02 PM 46.4 °F 44.3 °F 46.4 °F 100% 30.33 in 1.2 mi WSW 4.6 mph - N/A   Overcast
10:19 PM 46.4 °F 43.5 °F 46.4 °F 100% 30.33 in 3.0 mi West 5.8 mph - N/A   Overcast
10:38 PM 46.4 °F 43.5 °F 46.4 °F 100% 30.33 in 5.0 mi West 5.8 mph - N/A   Overcast
10:51 PM 46.4 °F 44.3 °F 46.4 °F 100% 30.33 in 2.5 mi WSW 4.6 mph - N/A   Overcast
10:53 PM 46.0 °F 44.8 °F 46.0 °F 100% 30.35 in 2.5 mi WSW 3.5 mph - N/A   Overcast
11:01 PM 46.4 °F 44.3 °F 46.4 °F 100% 30.33 in 3.0 mi SW 4.6 mph - N/A   Overcast
11:13 PM 46.4 °F 44.3 °F 44.6 °F 93% 30.34 in 5.0 mi West 4.6 mph - N/A   Overcast
11:28 PM 46.4 °F - 46.4 °F 100% 30.34 in 5.0 mi Calm Calm - N/A   Overcast
11:53 PM 45.0 °F 42.6 °F 45.0 °F 100% 30.35 in 9.0 mi WSW 4.6 mph - N/A   Overcast